Location: New Canada
(47.1017°N, 68.5042°W)
Time: 06:29:52
(UTC+00:00)

BlueWalker 3 - Pass Details

Date: 08 December 2022
Orbit: 499 x 517 km, 53.2° (Epoch: 27 January)

Event Time Altitude Azimuth Distance (km) Brightness Sun altitude
Rises 21:58:29 0° 298° (WNW) 2,637 6.2 -12.0°
Reaches altitude 10° 22:00:44 10° 302° (WNW) 1,744 5.2 -12.4°
Maximum altitude 22:04:38 59° 23° (NNE) 597 2.0 -13.0°
Enters shadow 22:07:16 19° 99° (E) 1,253 3.4 -13.4°
